RH
58 51 44 40 33 24 5 3 13 19 22 17 17 17 22 24 51 96 82 66 97 97 97 97 96 97 96 78 47 48 61 68 40 40 25 20 32 68
85 88 71 52 48 35 25 20 4 10 16 20 17 16 19 25 24 40 51 51 83 98 96 94 94 95 97 95 70 44 50 78 49 66 47 20 21 40
84 86 77 69 63 64 55 36 24 10 10 16 16 16 17 25 25 19 22 54 98 80 80 77 77 90 96 97 94 76 58 68 56 87 81 45 18 17
70 70 69 72 75 58 61 59 51 32 10 11 13 12 15 20 27 23 21 71 96 88 92 87 85 79 97 97 96 96 70 68 70 79 88 89 42 19
68 66 78 76 78 75 59 40 64 58 30 7 10 9 11 18 30 34 24 85 99 90 90 79 89 89 88 97 98 97 99 94 80 77 87 88 91 41
68 71 61 70 81 90 84 77 51 74 50 25 6 6 6 17 27 34 17 22 48 90 96 93 92 96 96 97 96 99 97 94 96 87 86 89 94 67
38 65 67 64 86 88 90 85 71 68 60 65 9 4 4 10 22 32 21 26 29 50 73 89 74 72 92 98 96 96 96 96 99 96 87 87 88 90
18 20 72 66 86 100 100 88 97 98 98 68 17 4 4 8 99 92 38 35 29 36 40 43 41 41 56 59 95 98 97 99 97 86 82 89 92 97
8 12 66 96 98 100 100 100 100 99 87 60 27 3 3 8 82 81 56 49 35 38 47 59 49 58 57 63 86 92 96 94 75 82 86 84 89 97
8 8 22 98 100 100 99 100 100 100 65 83 81 69 88 46 99 99 89 65 46 36 37 54 71 63 58 52 60 68 87 85 82 83 79 82 97 96
16 8 11 54 100 97 100 100 100 100 99 100 100 99 91 92 75 99 98 89 56 44 40 35 50 56 56 45 40 51 67 80 69 96 96 96 100 100
25 15 10 16 98 100 100 100 100 90 100 100 100 100 85 90 94 98 89 66 49 44 49 36 44 53 60 64 61 63 70 75 72 76 100 100 94 99
36 24 13 12 70 100 100 100 100 100 99 99 100 100 99 90 99 91 74 52 47 57 41 50 63 98 100 84 74 77 85 86 95 89 90 89 93 91
20 33 20 13 23 96 100 100 100 100 100 100 100 100 98 99 76 52 42 40 51 61 32 81 98 96 99 99 95 98 98 100 100 92 95 98 97 96
14 21 29 14 13 56 98 100 100 100 100 100 100 100 90 40 62 84 54 50 74 78 68 82 99 99 92 95 90 86 87 96 97 98 97 99 96 92
9 14 26 23 12 13 50 99 100 100 100 100 100 94 54 67 66 82 49 65 80 97 100 98 100 96 90 80 93 92 86 91 97 96 98 96 92 99
9 11 17 29 14 12 18 34 98 100 100 100 100 98 70 90 83 71 53 84 97 98 100 97 99 96 98 98 98 100 97 96 97 96 96 94 94 93
6 9 15 29 25 12 12 20 24 88 100 100 100 100 100 98 100 99 98 100 99 99 98 94 98 97 91 95 99 100 97 97 96 87 86 86 79 72
6 9 15 22 32 18 13 12 14 27 57 100 100 100 100 100 100 98 96 99 99 100 100 100 100 100 97 94 88 97 98 82 64 59 52 49 48 48
8 9 14 18 31 29 17 16 13 12 20 34 97 100 100 91 100 98 100 98 77 68 70 94 99 97 100 96 100 100 89 73 65 64 61 54 50 52
9 9 12 18 22 31 27 17 18 16 12 12 22 68 98 100 100 100 100 99 98 97 96 100 100 90 96 98 100 95 89 78 71 68 64 61 60 54
11 9 10 15 19 24 30 26 18 19 18 14 11 12 28 81 95 98 100 100 92 91 89 100 99 100 98 93 96 96 94 84 74 67 64 62 62 62
13 11 9 10 16 20 24 29 27 20 20 20 17 14 11 10 16 29 44 79 95 94 100 97 100 100 100 100 96 92 100 100 99 88 73 64 61 60
Wind_Speed
49 50 53 54 56 57 70 80 84 86 87 84 78 76 76 75 67 64 68 62 60 61 67 71 68 63 59 53 52 47 44 40 40 39 38 38 38 38
44 41 43 44 45 49 55 60 74 86 86 86 81 78 79 77 70 70 63 60 66 59 67 58 66 60 59 58 58 52 47 42 42 40 40 38 38 37
42 38 37 42 43 46 47 53 57 69 85 85 83 77 78 77 74 69 66 58 55 56 68 58 55 59 59 65 62 53 47 45 45 41 40 40 39 38
38 43 39 36 42 46 47 51 56 58 70 87 83 80 74 75 73 73 61 62 53 45 45 47 56 62 57 67 65 54 49 49 50 46 42 41 42 40
40 37 40 40 39 44 46 46 50 57 55 82 85 81 72 72 74 73 66 62 58 40 46 36 40 55 60 67 60 59 62 56 53 51 47 43 42 45
41 40 38 39 41 41 44 47 44 48 57 62 83 83 73 68 75 72 69 67 58 45 37 36 41 43 56 61 63 63 60 56 56 51 52 48 45 45
41 42 40 40 38 36 40 41 44 46 54 58 70 79 72 66 74 72 71 69 58 53 60 50 45 38 35 65 62 62 60 57 54 53 53 52 51 47
40 40 43 43 37 33 34 37 43 50 51 47 58 73 71 69 59 64 69 64 61 58 60 51 47 42 39 40 52 65 63 61 58 59 57 56 52 50
39 37 39 45 33 31 33 37 32 38 44 49 53 67 66 67 70 76 75 59 57 57 52 51 45 43 40 44 47 49 55 57 59 59 58 58 56 52
40 38 34 39 37 36 32 31 27 23 37 54 56 52 57 64 59 62 52 57 58 58 56 56 51 47 46 45 49 55 59 59 53 55 58 56 54 53
40 40 35 35 32 34 31 28 20 30 42 62 52 55 53 74 69 58 54 52 50 52 54 54 52 53 52 52 53 54 58 58 60 60 58 58 58 58
40 40 38 32 29 28 29 26 17 39 31 33 40 46 67 70 51 45 49 53 52 50 51 55 54 56 56 57 58 56 55 56 58 62 64 59 61 62
42 38 39 33 29 22 26 28 22 28 36 44 39 47 53 67 48 55 54 52 50 50 49 57 55 52 54 55 56 53 53 53 55 54 54 58 56 56
45 40 36 34 28 26 21 25 19 26 29 44 47 39 53 56 56 54 53 56 57 58 56 53 56 57 53 54 55 52 45 53 51 54 55 50 54 52
51 44 38 34 30 26 21 19 21 23 31 42 46 55 41 47 55 59 56 62 62 64 64 64 65 46 49 52 54 56 53 52 52 55 55 55 55 53
51 48 41 36 31 26 24 16 20 25 34 37 41 52 54 51 53 55 58 63 65 67 60 58 53 51 50 48 48 51 52 52 53 56 50 59 56 53
52 49 45 40 34 28 25 24 14 21 28 40 46 53 57 55 52 55 53 56 61 63 54 56 46 51 56 54 51 54 53 50 50 51 52 50 49 51
48 50 47 43 39 32 26 23 23 19 20 29 39 49 53 54 55 51 56 57 57 50 64 52 54 58 59 54 51 50 45 44 45 44 45 47 47 48
41 48 49 46 42 38 32 26 23 23 19 22 35 37 46 48 57 58 56 53 51 53 54 61 61 59 55 54 54 52 48 48 47 45 44 44 43 45
32 45 49 48 45 42 38 32 26 24 24 22 19 32 40 53 56 59 61 59 56 56 56 62 57 56 58 57 56 53 52 53 52 51 49 48 47 46
26 37 47 50 49 46 43 40 35 31 26 24 24 22 23 29 37 41 50 58 55 52 56 55 64 63 65 61 57 55 56 56 56 55 53 53 52 51
25 29 41 49 51 50 48 45 42 38 34 30 26 26 28 27 25 27 39 42 45 43 44 53 61 66 67 63 60 58 57 57 58 58 57 56 55 54
27 27 32 44 50 52 52 49 47 45 41 37 34 31 30 27 28 29 29 29 37 46 46 48 54 57 64 65 64 62 60 59 59 59 59 58 57 55
Wind_Direction
288 280 276 271 268 262 251 245 244 244 244 244 242 239 238 244 243 247 248 251 253 248 240 247 244 245 247 239 239 240 240 242 240 239 240 242 246 245
289 284 277 269 267 262 261 256 245 242 243 241 243 240 237 239 240 242 245 251 250 249 243 248 243 246 248 234 236 236 239 242 237 239 239 239 242 244
285 283 283 272 266 265 263 260 257 246 239 237 238 240 238 236 237 240 243 244 239 251 252 252 243 245 238 229 232 233 235 239 236 241 243 241 240 242
295 284 281 278 266 263 264 266 258 253 242 236 235 236 237 236 235 236 238 237 236 248 247 240 240 234 243 234 230 231 232 237 238 240 242 244 241 242
312 305 288 279 283 267 262 270 259 247 248 234 231 233 232 233 234 236 234 230 238 248 238 249 239 234 235 226 227 232 230 231 237 240 241 245 244 243
309 312 302 289 276 279 263 268 261 249 242 242 227 229 228 228 233 235 234 238 246 234 225 230 240 232 228 218 224 228 235 237 239 241 242 242 244 243
303 309 310 302 280 281 265 264 258 253 245 248 227 223 224 224 232 234 233 238 234 230 241 236 238 260 247 227 229 231 230 233 237 241 242 242 243 243
298 300 312 309 295 282 275 269 260 252 248 245 220 218 218 218 228 223 228 234 234 233 232 242 244 252 244 241 238 235 232 235 240 241 246 242 240 241
298 297 307 311 293 276 278 278 272 259 243 229 201 210 212 219 222 233 231 225 228 231 230 227 226 225 233 239 238 238 235 232 239 239 240 241 239 239
301 299 297 308 295 280 286 285 282 255 225 193 183 195 206 216 218 215 218 227 227 230 230 227 229 231 232 237 240 238 236 236 235 241 238 240 237 238
297 301 295 301 300 283 281 292 289 257 220 185 189 194 210 223 230 222 223 221 225 230 235 232 234 238 236 238 241 243 241 242 236 233 234 234 241 240
291 296 300 291 303 281 270 281 265 231 239 221 199 196 215 228 223 206 218 215 217 222 227 232 234 235 239 238 236 237 237 235 236 232 234 236 239 239
282 286 294 292 292 297 267 269 269 226 231 216 209 199 204 208 205 213 208 214 214 216 223 225 230 225 227 231 230 231 232 234 234 232 232 235 237 240
273 275 280 288 279 288 273 262 267 227 221 201 202 205 221 201 202 210 208 212 212 214 222 230 229 230 227 225 230 229 230 232 233 232 229 227 239 239
263 265 268 274 278 273 284 265 247 228 218 214 208 216 217 207 208 213 215 214 214 214 217 227 233 226 231 226 228 234 240 234 224 231 234 234 240 241
255 255 256 261 269 269 262 270 252 238 221 217 210 206 207 208 213 214 213 217 221 218 222 216 221 231 234 234 233 235 239 240 240 239 236 237 236 239
246 246 248 250 252 261 259 257 255 242 226 215 210 214 216 217 221 223 223 222 222 223 226 222 223 225 235 237 235 235 235 233 237 237 238 243 241 241
239 239 238 241 245 245 249 249 247 243 235 220 218 217 214 214 215 220 221 227 235 234 227 224 229 230 233 234 234 233 232 231 232 236 238 239 240 241
242 234 232 233 236 239 240 239 238 242 243 233 227 218 219 222 224 223 228 225 234 231 226 229 218 233 226 229 232 233 232 231 232 235 238 240 242 242
250 234 229 228 229 231 234 236 236 236 235 238 229 216 218 226 229 227 233 234 236 236 241 242 218 230 228 227 227 228 229 231 233 237 239 241 242 242
265 238 229 227 227 227 229 230 231 232 233 231 234 235 220 214 221 224 227 232 235 225 235 239 231 232 224 224 223 225 229 232 235 237 239 241 243 244
272 255 233 228 226 225 226 227 228 229 229 229 228 229 231 234 225 221 222 226 231 237 234 234 236 231 222 223 225 227 231 235 237 239 240 241 243 245
284 263 248 232 227 226 225 225 226 227 228 228 228 231 231 230 229 231 232 227 229 234 235 232 228 229 228 223 226 230 232 236 239 242 243 244 246 247